Regional Weather Roundup
Issued by NWS

Home | Current Version | Previous Version | Text Only | Print | Product List | Glossary On
Versions: 1 2 3 4 5 6 7 8 9 10 11 12 13 14 15 16 17 18 19 20 21 22 23 24 25 26 27 28 29 30 31 32 33 34 35 36 37 38 39 40 41 42 43 44 45 46 47 48 49 50
000
ASUS43 KIND 020209
RWRIN

WEATHER ROUNDUP FOR INDIANA
NATIONAL WEATHER SERVICE INDIANAPOLIS IN
1000 PM EDT WED OCT 01 2014

NOTE: "FAIR" INDICATES FEW OR NO CLOUDS BELOW 12,000 FEET WITH NO
SIGNIFICANT WEATHER AND/OR OBSTRUCTIONS TO VISIBILITY.

* - STATION DOES NOT REPORT WEATHER SUCH AS PRECIPITATION OR FOG.

+ - STATION NOT QUALITY CONTROLLED BY THE NATIONAL WEATHER SERVICE.
    USE DATA WITH CAUTION...ESPECIALLY DEWPOINT AND RELATIVE
    HUMIDITY OBSERVATIONS.

INZ001>003-010>013-019-020-020300-
NORTHWEST INDIANA

CITY           SKY/WX    TMP DP  RH WIND       PRES   REMARKS
GARY /AIRPORT/ PTCLDY    66  50  55 SE14      29.92S
KNOX *+        CLEAR     59  50  73 SE8       29.95S
LA PORTE +     PTCLDY    59  52  77 E7        29.97R
MICHIGAN CITY+ PTCLDY    61  46  59 E6        29.95S
MONTICELLO +   PTCLDY    63  52  68 E6        29.94S
RENSSELAER +   PTCLDY    63  54  72 E8        29.94R
VALPARAISO     PTCLDY    57  51  80 E8        29.95R

$$

LMZ046-743>745-020300-
SOUTHERN LAKE MICHIGAN

STATION/POSITION TIME  TEMP WIND        PRES
                       AIR  DIR/SP/G
                 (UTC) (F)  (DEG/KT/KT) (MB)
MICHIGAN CITY    0100   64  110/ 10/ 13   N/A

$$

INZ004-005-014>016-021>024-020300-
NORTH CENTRAL INDIANA

CITY           SKY/WX    TMP DP  RH WIND       PRES   REMARKS
GOSHEN         CLEAR     57  50  77 SE7       29.99R
LOGANSPORT +   CLEAR     55  48  76 E8        29.97S
PERU/GRISSOM   CLEAR     58  54  85 E7        29.97S
ROCHESTER +    CLEAR     59  52  77 E6        29.98S
SOUTH BEND     NOT AVBL
WARSAW +       CLEAR     54  50  87 E5        29.99S

$$

INZ006>009-017-018-025>027-020300-
NORTHEAST INDIANA

CITY           SKY/WX    TMP DP  RH WIND       PRES   REMARKS
ANGOLA *+      CLEAR     57  48  72 SE5       30.02R
AUBURN +       CLEAR     55  46  71 CALM      30.02S
FORT WAYNE     PTCLDY    57  50  77 E5        30.01S
HUNTINGTON +   CLEAR     56  50  78 E5        30.00R

$$

INZ028-029-035-036-043>045-051>053-020300-
WEST CENTRAL INDIANA

CITY           SKY/WX    TMP DP  RH WIND       PRES   REMARKS
GREENCASTLE +  PTCLDY    63  59  88 CALM      29.95S
LAFAYETTE      PTCLDY    64  55  72 E7        29.94R
TERRE HAUTE    MOCLDY    69  61  75 SE7       29.93R

$$

INZ030>032-037>040-046>048-054>057-064-065-020300-
CENTRAL INDIANA

CITY           SKY/WX    TMP DP  RH WIND       PRES   REMARKS
CP ATTERBURY + CLEAR     61  59  94 CALM      29.98R
COLUMBUS       CLEAR     66  59  77 E7        29.98R
FRANKFORT +    PTCLDY    63  54  71 E7        29.97R
INDIANAPOLIS   PTCLDY    68  55  63 E10       29.95S
-EAGLE CREEK   PTCLDY    67  55  65 E7        29.96R
KOKOMO *+      CLEAR     57  48  72 SE7       29.98S
MARION +       CLEAR     55  47  75 E5        29.99S
MT COMFORT *+  CLEAR     64  48  55 SE7       29.99R
SHELBYVILLE    CLEAR     64  55  72 E9        29.98R
ZIONSVILLE +   PTCLDY    64  53  66 SE6       29.98R

$$

INZ033-034-041-042-049-050-058-059-020300-
EAST CENTRAL INDIANA

CITY           SKY/WX    TMP DP  RH WIND       PRES   REMARKS
MUNCIE         CLEAR     61  50  67 SE6       30.00R

$$

INZ060-061-067>069-081>083-085>088-020300-
SOUTHWEST INDIANA

CITY           SKY/WX    TMP DP  RH WIND       PRES   REMARKS
EVANSVILLE     CLEAR     69  60  73 CALM      29.92S
WASHINGTON +   CLEAR     65  58  78 S6        29.92S

$$

INZ062-063-066-070>080-084-089>092-020300-
SOUTH CENTRAL AND SOUTHEAST INDIANA

CITY           SKY/WX    TMP DP  RH WIND       PRES   REMARKS
BLOOMINGTON    CLEAR     67  61  81 SE3       29.96R
NORTH VERNON + CLEAR     66  57  72 E5        29.99R

$$




USA.gov is the U.S. government's official web portal to all federal, state and local government web resources and services.